Regional Weather Roundup
Issued by NWS Sterling, VA

Home | Current Version | Previous Version | Graphics & Text | Print | Product List | Glossary On
Versions: 1 2 3 4 5 6 7 8 9 10 11 12 13 14 15 16 17 18 19 20 21 22 23 24 25 26 27 28
000
ASUS41 KLWX 240810
RWRLWX

REGIONAL WEATHER ROUNDUP
NATIONAL WEATHER SERVICE BALTIMORE MD/WASHINGTON DC
400 AM EDT WED AUG 24 2016

Note: "FAIR" indicates few or no clouds below 12,000 feet
with no significant weather and/or obstructions to visibility.
 TC=TEMPERATURE CELSIUS

 * =Non NWS site. Station does not report precipitation (e.g. rain,
    snow, etc.), thunder, or fog.

DCZ001-MDZ009-015-VAZ040>042-051-053>054-240900-
WASHINGTON METRO

CITY           SKY/WX    TMP DP  RH WIND       PRES   REMARKS
WASHINGTON NAT PTCLDY    70  63  78 CALM      30.28F
DULLES         CLEAR     63  59  87 SE3       30.28F
ANDREWS AFB    CLOUDY    64  60  87 S5        30.27F
FT BELVOIR     CLEAR     63  61  95 CALM      30.27F
QUANTICO       CLEAR     66  63  90 W6        30.28F
COLLEGE PARK*  CLEAR     61  59  94 CALM      30.28S
LEESBURG*      CLEAR     64  63  94 CALM      30.29S
MANASSAS*      CLEAR     63  61  94 S3        30.29S
GAITHERSBURG*  CLEAR     61  55  82 CALM      30.32F

$$

MDZ006>007-011-014-240900-
BALTIMORE METRO

CITY           SKY/WX    TMP DP  RH WIND       PRES   REMARKS
BWI AIRPORT    PTCLDY    63  58  83 CALM      30.28S
MD SCIENCE CTR   N/A     70  57  63 MISG      30.28S
MARTIN STATE   CLEAR     64  64 100 CALM      30.29S
ANNAPOLIS      CLEAR     70  62  76 CALM      30.27S
FORT MEADE*    CLEAR     59  55  88 CALM      30.30S

$$

MDZ012-015-019>023-240900-
MARYLAND EASTERN SHORE

CITY           SKY/WX    TMP DP  RH WIND       PRES   REMARKS
OCEAN CITY     CLEAR     59  57  93 CALM      30.28F
SALISBURY      CLEAR     59  57  93 CALM      30.28F
BAY BRIDGE AP* CLEAR     72  64  78 SW5       30.28R
CAMBRIDGE*     CLEAR     61  59  94 CALM      30.28S
EASTON*        CLEAR     66  64  91 CALM      30.32R

$$

MDZ017>025-240900-
SOUTHERN MARYLAND

CITY           SKY/WX    TMP DP  RH WIND       PRES   REMARKS
PATUXENT RIVER CLEAR     63  60  90 SW3       30.27F
ST INIGOES     CLEAR     64  61  90 CALM      30.27F
LEONARDTOWN*   CLEAR     63  59  88 CALM      30.29F

$$

MDZ003>005-240900-
NORTH CENTRAL MARYLAND

CITY           SKY/WX    TMP DP  RH WIND       PRES   REMARKS
FREDERICK*     CLEAR     61  61 100 CALM      30.30S
HAGERSTOWN APT CLEAR     68  58  70 SE6       30.27F

$$

MDZ501>502-240900-
WESTERN MARYLAND

CITY           SKY/WX    TMP DP  RH WIND       PRES   REMARKS
OAKLAND*       CLEAR     59  57  94 S7        30.33F
CUMBERLAND*    CLEAR     61  61 100 CALM      30.31S

$$

VAZ025>031-240900-
SHENANDOAH VALLEY

CITY           SKY/WX    TMP DP  RH WIND       PRES   REMARKS
WINCHESTER*    CLEAR     63  61  94 CALM      30.27S
FRONT ROYAL*   CLOUDY    63  63 100 CALM      30.26F VSB<1/4
LURAY*         FOG      N/A N/A N/A CALM      30.28F VSB 1/4
NEW MARKET*    FAIR     N/A N/A N/A CALM      30.28S
STAUNTON*      CLOUDY    58  58  98 CALM      30.32S FOG
WAYNESBORO*    FAIR      62  60  94 SW3       30.31S

$$

WVZ021-048>050-054>055-240900-
EASTERN WEST VIRGINIA PANHANDLE

CITY           SKY/WX    TMP DP  RH WIND       PRES   REMARKS
MARTINSBURG    CLEAR     62  60  93 CALM      30.26F
PETERSBURG*    PTCLDY    59  59  99 CALM      30.28F FOG

$$

VAZ036>039-050-240900-
CENTRAL FOOTHILLS

CITY           SKY/WX    TMP DP  RH WIND       PRES   REMARKS
CHARLOTTESVILL FOG       64  62  93 W5        30.29F VSB 1
CULPEPER*      MOCLDY    62  62 100 CALM      30.29F
ORANGE*          N/A     63  63 100 CALM      30.30F
GORDONSVILLE*  NOT AVBL
WARRENTON*     MOCLDY    61  56  85 CALM      30.28S

$$

VAZ055>057-240900-
NORTH AND CENTRAL PIEDMONT

CITY           SKY/WX    TMP DP  RH WIND       PRES   REMARKS
FREDERICKSBRG* PTCLDY    64  64 100 CALM      30.28S
STAFFORD*      PTCLDY    59  58  97 NW3       30.33S

$$

NCZ024-NYZ072-PAZ021-071-VAZ022-071-240900-
OTHER REGIONAL OBSERVATIONS

CITY           SKY/WX    TMP DP  RH WIND       PRES   REMARKS
NEW YORK CITY  CLEAR     69  57  65 CALM      30.29S
PHILADELPHIA   CLEAR     69  59  70 SW6       30.28F
PITTSBURGH     CLEAR     61  57  87 CALM      30.24R
ROANOKE        CLEAR     64  62  93 CALM      30.32S
RICHMOND       PTCLDY    62  59  90 CALM      30.28S
RALEIGH        PTCLDY    69  61  75 SE3       30.28S

$$

ANZ530>537-240900-
MARINE OBSERVATIONS

STATION/POSITION TIME  TEMP    WIND        PRES
                       AIR SEA DIR/SP/G
                 (UTC) (F)     (DEG/KT/KT) (MB)
THOMAS PT LIGHT  0800   73 82  230/ 11/ 13 1026.6S
BALT KEY BRIDGE  0742   71     250/  3/  5 1025.1F
COVE POINT       0742   72     250/  7/ 10 1025.8F
LEWISETTA        0742   71 81  240/  3/  4 1024.8F
SOLOMONS ISLAND  0742   73 84  240/  5/  7   N/A
PINEY POINT      0748          220/  6/  7   N/A

$$





USA.gov is the U.S. government's official web portal to all federal, state and local government web resources and services.